Terminal Aerodrome Forecast
Issued by NWS Norman, OK

Home | Current Version | Previous Version | Text Only | Print | Product List | Glossary On
Versions: 1 2 3 4 5 6 7 8 9 10 11 12 13 14 15 16 17 18 19 20 21 22 23 24 25 26
000
FTUS44 KOUN 271401 AAA
TAFSPS
TAF AMD
KSPS 271401Z 2714/2812 36014KT 1SM -SN BR OVC009
      TEMPO 2715/2717 1/2SM SN FG
     FM271700 36013KT P6SM BKN035
     FM272100 36010KT P6SM SCT040 BKN080
     FM280100 35007KT P6SM SCT120=

USA.gov is the U.S. government's official web portal to all federal, state and local government web resources and services.